Lid_Strength_Index
1 2 2 3 9 9 11 10 7 8 8 7 5 6 7 6 9 12 2 1 0 0 -1 -1 -2 -2 -2 -1 -2 -2 -2 -2 -2 -2 -2 -2 -2 -2 -2 -2 -3 -2 -2 -2 -2 -2 -2 -2 -2
3 3 3 5 10 13 11 9 8 7 6 5 6 6 7 8 4 4 3 0 -0 -0 -0 -1 -1 -2 -2 -1 -2 -2 -2 -2 -2 -2 -2 -2 -2 -2 -2 -2 -3 -2 -2 -2 -2 -2 -2 -2 -2
3 4 5 8 10 12 11 9 8 6 5 6 7 6 6 7 4 3 1 0 -0 -0 -0 -1 -1 -2 -2 -2 -2 -2 -2 -2 -2 -2 -2 -2 -2 -2 -2 -2 -2 -3 -2 -2 -2 -2 -2 -2 -2
4 6 5 9 11 9 9 8 6 7 6 5 6 7 5 3 3 2 0 0 0 -0 -0 -1 -1 -2 -2 -2 -2 -2 -2 -2 -2 -2 -2 -2 -2 -2 -2 -2 -2 -2 -2 -2 -2 -2 -2 -2 -2
4 5 9 10 10 10 9 7 6 7 7 7 6 7 7 3 1 1 1 0 1 0 -0 -1 -1 -1 -2 -2 -2 -2 -2 -2 -2 -2 -2 -2 -2 -2 -2 -2 -2 -2 -2 -2 -2 -2 -2 -2 -2
7 6 10 12 10 9 9 7 6 7 7 7 8 7 7 2 2 1 1 1 0 0 -0 -1 0 -1 -1 -1 -1 -2 -2 -2 -2 -2 -2 -2 -2 -2 -2 -2 -2 -2 -2 -2 -2 -2 -2 -2 -2
7 8 10 10 10 9 8 7 8 8 8 7 6 8 6 4 2 1 1 1 0 -0 -0 -0 -0 -0 -0 -0 -1 -1 -2 -2 -2 -2 -2 -2 -3 -2 -2 -2 -2 -2 -2 -2 -2 -2 -2 -2 -2
7 7 10 9 10 10 8 7 7 8 8 5 5 8 8 4 1 1 1 1 0 0 -0 -0 -0 -0 -0 -0 1 -0 -1 -1 -2 -2 -1 -1 -1 -1 -2 -1 -2 -2 -2 -2 -2 -2 -2 -2 -2
5 9 11 10 9 9 7 8 7 7 7 7 6 5 4 2 2 2 2 2 1 1 0 -0 0 0 -0 -0 1 1 0 -0 -1 -1 -0 -0 -0 -0 -0 -1 -2 -2 -2 -2 -2 -2 -2 -1 -1
8 10 9 7 8 8 7 8 8 9 8 8 6 4 3 3 3 3 3 3 2 2 1 0 -0 0 -0 -0 -0 -0 -0 -0 -0 -0 -0 -0 -0 0 0 0 -1 -1 -1 -1 -1 -1 -1 -0 1
8 9 9 8 7 6 7 8 7 9 9 8 7 5 4 4 4 4 3 3 2 2 1 0 0 0 -0 0 -0 -0 -0 0 0 -0 -0 0 0 1 0 1 0 0 1 1 1 1 1 1 1
10 8 8 7 8 7 7 7 8 8 9 6 6 3 4 4 4 4 3 3 2 2 1 0 0 0 0 -0 0 0 0 0 -0 0 0 0 1 1 0 0 0 1 1 1 1 1 1 1 1
9 9 8 8 8 8 7 8 8 8 7 7 5 4 4 4 4 3 2 2 2 2 1 1 1 1 0 0 0 0 0 0 0 1 0 1 1 1 1 1 1 1 1 1 2 1 1 2 1
9 9 9 9 9 9 8 9 9 8 7 7 7 5 4 4 4 3 3 3 2 2 1 0 0 -0 1 0 1 1 0 1 0 1 1 1 1 1 1 1 1 1 1 2 2 2 2 2 2
9 11 10 10 9 10 9 11 11 9 7 7 8 8 6 4 3 4 3 3 2 2 1 1 0 -0 0 0 1 1 1 0 1 1 1 1 1 1 1 1 1 2 2 2 2 2 2 3 2
12 12 13 10 9 10 10 13 9 8 9 9 9 9 8 6 4 4 3 2 2 2 1 1 0 0 0 -0 -0 1 0 0 1 1 1 2 2 1 2 2 2 1 2 3 3 3 4 4 4
11 15 13 12 9 10 11 13 10 9 9 10 10 9 8 7 6 5 3 3 2 2 2 1 1 1 0 -0 -0 -0 1 0 1 1 2 2 2 1 1 1 2 3 3 3 4 4 4 5 5
14 14 13 13 11 11 13 12 11 10 10 10 10 10 9 9 8 6 4 3 2 2 2 2 1 1 1 0 -0 -0 0 1 1 1 1 1 1 2 2 1 2 3 4 4 4 5 5 5 5
12 12 13 12 11 12 12 12 11 10 10 10 10 9 9 8 7 7 6 4 3 3 2 2 2 1 1 1 1 1 1 1 1 1 1 1 1 2 2 3 4 5 5 5 6 6 7 7 6
12 13 14 13 11 12 13 12 10 10 10 10 9 9 9 8 8 7 7 6 3 3 3 2 2 1 1 1 1 1 1 0 0 0 0 0 1 2 3 3 4 5 6 6 7 7 8 8 7
13 14 14 13 12 13 14 15 13 11 10 10 9 9 8 8 8 8 7 7 7 4 3 3 2 2 1 1 1 1 1 1 2 1 1 1 1 1 3 3 4 6 5 5 7 8 8 8 8
14 11 12 13 15 17 13 19 15 13 12 11 11 10 9 9 9 9 8 8 8 7 6 7 3 3 2 1 2 2 2 3 1 2 0 0 2 1 1 3 4 5 5 5 6 7 7 7 8
13 11 12 13 15 16 16 18 16 14 13 12 11 11 10 10 9 10 9 8 8 8 8 7 7 6 4 2 2 2 2 1 1 1 1 1 1 1 2 3 3 4 4 5 4 6 7 7 8
10 12 12 13 15 19 16 17 17 15 13 13 13 12 10 10 9 9 8 7 7 6 5 5 7 7 6 3 2 2 2 2 2 2 2 1 1 1 2 2 3 3 3 4 5 5 6 7 7
11 13 18 19 20 20 16 17 16 13 12 13 12 12 11 9 9 9 9 8 6 6 4 4 6 7 7 4 2 2 2 1 2 2 2 2 2 3 2 2 3 3 3 4 5 6 7 7 7
12 13 17 21 20 20 17 20 16 12 12 11 11 11 10 10 9 9 8 7 7 6 5 4 4 6 6 5 3 2 2 3 2 1 2 2 2 3 2 3 3 4 4 5 5 6 7 7 8
13 15 12 16 20 20 17 16 13 11 12 12 12 11 10 9 9 8 8 7 7 6 5 4 4 4 3 3 3 3 3 2 2 2 3 3 4 5 5 5 5 6 6 6 7 7 8 8 7
11 10 15 15 21 22 19 18 17 14 12 11 12 11 10 9 9 8 8 8 7 6 5 4 3 4 4 4 4 4 4 3 3 4 5 5 6 6 7 6 6 7 7 7 7 7 8 8 8
13 13 13 13 15 19 21 18 14 13 12 12 11 10 10 9 9 8 8 8 7 7 6 5 4 4 4 4 5 5 5 4 4 5 5 6 7 6 6 7 7 7 7 6 6 7 8 8 9
11 12 12 15 18 17 17 17 12 12 11 11 11 9 9 8 8 9 8 8 8 7 7 6 5 5 4 4 5 5 5 5 5 5 5 6 6 7 7 8 8 8 8 7 8 8 9 9 10